SKYMED 2

导读

SKYMED 2(COSMO-SkyMed 2)是意大利军民两用X波段雷达成像卫星,是COSMO-SkyMed四星星座的第二颗卫星,于2007年12月9日发射入太阳同步轨道。它由泰勒斯阿莱尼亚航天公司为意大利航天局和国防部建造,具备大角度侧视和快速摆动能力,可全天时、全天候提供高分辨率对地观测数据,广泛应用于国防安全、灾害监测、环境保护、资源勘探等领域。

基本信息
目录编号:
32376
目录名称:
SKYMED 2
国际标识:
2007-059A
轨道中心:
EARTH
卫星名称:
SKYMED 2
卫星全名:
--
卫星状态:
在轨 (已飞行6851 天)
发射日期:
2007-12-09 UTC
国别 :
意大利 (IT)
星等 :
--
该卫星已列入 空间交会检测服务 Space Conjunction Data Service (SCDS) ,当前飞行风险评估等级: 无高风险
轨道信息
数据来源 国际轨道数据 AOE轨道数据
星历时间 2026-09-11T15:18:29+0800
7小时前
查看轨道信息
2026-09-10T22:00:00+0800
1天前
查看轨道信息
半长轴 7000.692km 7000.682km
偏心率 0.0001326 0.0001276
轨道倾角 97.891° 97.891°
近地点辐角 89.678° 89.600°
升交点赤经 76.674° 75.963°
平近点角 270.458° 24.916°
近地点 621.626km 621.651km
远地点 623.484km 623.439km
周期 97.156分钟 97.156分钟
每日圈数 14.821472 14.821503
详细信息
使用方式:
暂无
2D轨道图
3D轨道图
轨道高度分析图
轨道倾角分析图
轨道综合分析图
查看轨道综合分析图
交会数据列表
事件ID 空间交会对象 最接近时刻(TCA) 交会距离 交会风险概率(CRP) 交会风险指数(CRI) 操作
CDM_260913-052903-237606-571426
SKYMED 2 (32376)
2026-09-13T
05:29:48+0000
0.942 km
远距离
3.286181E-5 中风险 0.65
与全量物体交会距离演化趋势
与全量物体交会风险概率演化趋势